Weather History for Sonora, TX

Change the Weather History Date:

Monday, May 6, 2013

  Actual Average (KOZA) Record (KOZA)
Temperature  
Mean Temperature 68 °F -  
Max Temperature 78 °F 83 °F 98 °F (2014)
Min Temperature 57 °F 56 °F 51 °F (2013)
Cooling Degree Days 2    
Growing Degree Days 18 (Base 50)    
Moisture  
Dew Point 43 °F    
Average Humidity 44    
Maximum Humidity 59    
Minimum Humidity 24    
Precipitation  
Precipitation 0.00 in - - ()
Sea Level Pressure  
Sea Level Pressure 30.10 in    
Wind  
Wind Speed 5 mph (ESE)    
Max Wind Speed 13 mph    
Max Gust Speed 22 mph    
Visibility 10 miles    
Events      
Averages and records for this station are not official NWS values.
T = Trace of Precipitation, MM = Missing Value Source: NWS Daily Summary

Daily Weather History Graph

Daily Weather History Graph

Search for Another Location

Airport:

Trip Planner

Search our weather history database for the weather conditions in past years. The results will help you decide how hot, cold, wet, or windy it might be!

Date:

Astronomy

May. 06, 2013 Rise Set
Actual Time 6:54 AM CDT 8:24 PM CDT
Civil Twilight 6:28 AM CDT 8:50 PM CDT
Nautical Twilight 5:57 AM CDT 9:21 PM CDT
Astronomical Twilight 5:25 AM CDT 9:53 PM CDT
Moon 4:44 AM CDT (5/6) 5:37 PM CDT (5/6)
Length of Visible Light 14h 21m
Length of Day
13h 30m
Waning Crescent, 11% of the Moon is Illuminated
May 6
Waning Crescent
May 9
New
May 17
First Quarter
May 24
Full
May 31
Last Quarter

Hourly Weather History & Observations

Time (CDT) Temp. Dew Point Humidity Pressure Visibility Wind Dir Wind Speed Gust Speed Precip Events Conditions
12:15 AM 64.4 °F 37.4 °F 37% 30.13 in 10.0 mi SE 4.6 mph - N/A   Clear
12:35 AM 62.6 °F 37.4 °F 39% 30.14 in 10.0 mi SSE 3.5 mph - N/A   Clear
12:55 AM 62.6 °F 37.4 °F 39% 30.14 in 10.0 mi Calm Calm - N/A   Clear
1:15 AM 60.8 °F 37.4 °F 42% 30.13 in 10.0 mi ESE 3.5 mph - N/A   Clear
1:35 AM 60.8 °F 39.2 °F 45% 30.13 in 10.0 mi East 4.6 mph - N/A   Clear
1:55 AM 60.8 °F 39.2 °F 45% 30.13 in 10.0 mi Calm Calm - N/A   Clear
2:15 AM 60.8 °F 39.2 °F 45% 30.12 in 10.0 mi SE 4.6 mph - N/A   Clear
2:35 AM 60.8 °F 39.2 °F 45% 30.11 in 10.0 mi ESE 3.5 mph - N/A   Clear
2:55 AM 60.8 °F 39.2 °F 45% 30.11 in 10.0 mi East 3.5 mph - N/A   Clear
3:15 AM 60.8 °F 39.2 °F 45% 30.10 in 10.0 mi Calm Calm - N/A   Clear
3:35 AM 60.8 °F 39.2 °F 45% 30.10 in 10.0 mi East 3.5 mph - N/A   Clear
3:55 AM 60.8 °F 39.2 °F 45% 30.09 in 10.0 mi Calm Calm - N/A   Clear
4:15 AM 60.8 °F 39.2 °F 45% 30.09 in 10.0 mi SE 4.6 mph - N/A   Clear
4:35 AM 59.0 °F 41.0 °F 51% 30.09 in 10.0 mi SSE 5.8 mph - N/A   Clear
4:55 AM 59.0 °F 41.0 °F 51% 30.09 in 10.0 mi Calm Calm - N/A   Clear
5:15 AM 59.0 °F 41.0 °F 51% 30.10 in 10.0 mi South 4.6 mph - N/A   Clear
5:35 AM 57.2 °F 42.8 °F 59% 30.10 in 10.0 mi ESE 5.8 mph - N/A   Clear
5:55 AM 57.2 °F 42.8 °F 59% 30.10 in 10.0 mi South 6.9 mph - N/A   Clear
6:15 AM 57.2 °F 42.8 °F 59% 30.11 in 10.0 mi SSW 3.5 mph - N/A   Clear
6:35 AM 57.2 °F 42.8 °F 59% 30.13 in 10.0 mi South 6.9 mph - N/A   Clear
6:55 AM 57.2 °F 42.8 °F 59% 30.15 in 10.0 mi SW 5.8 mph - N/A   Clear
7:15 AM 57.2 °F 42.8 °F 59% 30.16 in 10.0 mi SW 3.5 mph - N/A   Clear
7:35 AM 57.2 °F 42.8 °F 59% 30.17 in 10.0 mi Calm Calm - N/A   Clear
7:55 AM 57.2 °F 42.8 °F 59% 30.17 in 10.0 mi Calm Calm - N/A   Clear
8:15 AM 57.2 °F 42.8 °F 59% 30.16 in 10.0 mi SE 4.6 mph - N/A   Clear
8:35 AM 57.2 °F 42.8 °F 59% 30.14 in 10.0 mi ESE 5.8 mph - N/A   Clear
8:55 AM 59.0 °F 44.6 °F 59% 30.14 in 10.0 mi SE 8.1 mph - N/A   Clear
9:15 AM 60.8 °F 44.6 °F 55% 30.15 in 10.0 mi SE 6.9 mph - N/A   Clear
9:35 AM 60.8 °F 44.6 °F 55% 30.13 in 10.0 mi ENE 5.8 mph - N/A   Clear
9:55 AM 60.8 °F 44.6 °F 55% 30.13 in 10.0 mi East 5.8 mph - N/A   Clear
10:15 AM 60.8 °F 46.4 °F 59% 30.16 in 10.0 mi SSE 3.5 mph - N/A   Partly Cloudy
10:35 AM 62.6 °F 46.4 °F 55% 30.17 in 10.0 mi Calm Calm - N/A   Partly Cloudy
10:55 AM 64.4 °F 46.4 °F 52% 30.16 in 10.0 mi South 11.5 mph - N/A   Clear
11:15 AM 66.2 °F 46.4 °F 49% 30.16 in 10.0 mi South 9.2 mph 16.1 mph N/A   Clear
11:35 AM 68.0 °F 44.6 °F 43% 30.15 in 10.0 mi South 11.5 mph - N/A   Partly Cloudy
11:55 AM 69.8 °F 44.6 °F 40% 30.15 in 10.0 mi South 11.5 mph - N/A   Partly Cloudy
12:15 PM 69.8 °F 44.6 °F 40% 30.14 in 10.0 mi SSE 8.1 mph - N/A   Scattered Clouds
12:35 PM 68.0 °F 46.4 °F 46% 30.13 in 10.0 mi ESE 9.2 mph - N/A   Scattered Clouds
12:55 PM 66.2 °F 46.4 °F 49% 30.14 in 10.0 mi SE 5.8 mph - N/A   Scattered Clouds
1:15 PM 68.0 °F 50.0 °F 52% 30.14 in 10.0 mi ESE 3.5 mph - N/A   Partly Cloudy
1:35 PM 69.8 °F 46.4 °F 43% 30.14 in 10.0 mi SW 4.6 mph - N/A   Partly Cloudy
1:55 PM 69.8 °F 46.4 °F 43% 30.13 in 10.0 mi ENE 4.6 mph - N/A   Scattered Clouds
2:15 PM 69.8 °F 48.2 °F 46% 30.12 in 10.0 mi North 8.1 mph - N/A   Scattered Clouds
2:35 PM 71.6 °F 46.4 °F 41% 30.12 in 9.0 mi SE 6.9 mph - N/A   Scattered Clouds
2:55 PM 71.6 °F 46.4 °F 41% 30.11 in 10.0 mi NE 4.6 mph - N/A   Partly Cloudy
3:15 PM 73.4 °F 46.4 °F 38% 30.10 in 10.0 mi East 6.9 mph - N/A   Clear
3:35 PM 75.2 °F 46.4 °F 36% 30.08 in 10.0 mi NE 6.9 mph - N/A   Clear
3:55 PM 75.2 °F 46.4 °F 36% 30.07 in 10.0 mi ESE 8.1 mph 16.1 mph N/A   Clear
4:15 PM 77.0 °F 44.6 °F 32% 30.05 in 10.0 mi ESE 10.4 mph - N/A   Clear
4:35 PM 77.0 °F 44.6 °F 32% 30.04 in 10.0 mi ESE 10.4 mph - N/A   Clear
4:55 PM 77.0 °F 44.6 °F 32% 30.04 in 10.0 mi ESE 10.4 mph 20.7 mph N/A   Clear
5:15 PM 78.8 °F 42.8 °F 28% 30.04 in 10.0 mi East 8.1 mph 21.9 mph N/A   Clear
5:55 PM 78.8 °F 39.2 °F 24% 30.04 in 10.0 mi ESE 4.6 mph - N/A   Clear
6:15 PM 78.8 °F 39.2 °F 24% 30.03 in 10.0 mi SE 10.4 mph 19.6 mph N/A   Clear
6:35 PM 78.8 °F 39.2 °F 24% 30.03 in 10.0 mi ESE 10.4 mph 16.1 mph N/A   Clear
6:55 PM 77.0 °F 42.8 °F 29% 30.03 in 10.0 mi East 9.2 mph - N/A   Clear
7:15 PM 77.0 °F 42.8 °F 29% 30.03 in 10.0 mi East 10.4 mph 16.1 mph N/A   Clear
7:35 PM 75.2 °F 42.8 °F 31% 30.03 in 10.0 mi East 12.7 mph 16.1 mph N/A   Clear
7:55 PM 75.2 °F 42.8 °F 31% 30.03 in 10.0 mi East 8.1 mph - N/A   Clear
8:15 PM 73.4 °F 42.8 °F 33% 30.04 in 10.0 mi East 5.8 mph - N/A   Clear
8:35 PM 73.4 °F 42.8 °F 33% 30.04 in 10.0 mi East 6.9 mph - N/A   Clear
8:55 PM 71.6 °F 42.8 °F 35% 30.05 in 10.0 mi East 3.5 mph - N/A   Clear
9:15 PM 71.6 °F 42.8 °F 35% 30.06 in 10.0 mi East 6.9 mph - N/A   Clear
9:35 PM 69.8 °F 42.8 °F 38% 30.06 in 10.0 mi East 8.1 mph - N/A   Clear
9:55 PM 69.8 °F 42.8 °F 38% 30.07 in 10.0 mi East 5.8 mph - N/A   Clear
10:15 PM 68.0 °F 42.8 °F 40% 30.08 in 10.0 mi ESE 8.1 mph - N/A   Clear
10:35 PM 66.2 °F 42.8 °F 43% 30.09 in 10.0 mi ESE 5.8 mph - N/A   Clear
10:55 PM 66.2 °F 42.8 °F 43% 30.09 in 10.0 mi East 4.6 mph - N/A   Clear
11:15 PM 64.4 °F 42.8 °F 45% 30.09 in 10.0 mi East 4.6 mph - N/A   Clear
11:35 PM 64.4 °F 44.6 °F 49% 30.09 in 10.0 mi ESE 3.5 mph - N/A   Clear
11:55 PM 64.4 °F 44.6 °F 49% 30.09 in 10.0 mi Calm Calm - N/A   Clear